Погода в Бунаково

Украина / Харьковская область     49°14′19″N   36°31′17″E
темп.,
°C
ветер,
м/с
пор.,
м/с
влажн.,
%
обл.,
%
осадки,
мм/ч
давл.,
гПа
погр.,
м
14 апреля, ср
ср1400:00+9ююв3479100 0.0 102172
03:00+7ю228791 0.0 102121
06:00+7юв1187100 0.0 102011
09:00+10вюв3469100 0.0 1019413
12:00+13юв3564100 0.1 1018845
15:00+14ю475899 0.1 10171115
18:00+14ююв3457100 0.0 1016807
21:00+11ю2271100 0.0 101623
15 апреля, чт
чт1500:00+11юз227139 0.0 101531
03:00+8ююз238376 0.0 101540
06:00+7ююз349162 0.0 101567
09:00+10ю466989 0.0 1015456
12:00+13ю6760100 0.1 10141059
15:00+12ю576798 0.1 1014751
18:00+10ююз368788 1.2 1014445
21:00+10юв358398 1.4 1014176
16 апреля, пт
пт1600:00+8ю38915 0.4 1013182
03:00+8ююз4889100 0.4 1014389
06:00+7ююз578497 0.0 1015682
09:00+7ю5671100 0.0 1016912
12:00+9ю6765100 0.0 10161208
15:00+11ююз6857100 0.1 10161603
18:00+10ю5765100 0.1 10171056
21:00+7ю35796 0.2 101884
17 апреля, сб
сб1700:00+5зюз338647 0.1 101954
03:00+4з228363 0.1 102021
06:00+4ю11835 0.0 102110
09:00+9зюз33600 0.0 1019617
12:00+10ююз4561100 0.1 10221315
15:00+9юз346563 0.2 1023857
18:00+10зюз336116 0.0 1023983
21:00+7зюз11745 0.0 102310
18 апреля, вс
вс1800:00+6ссв1177100 0.0 102413
03:00+7всв1276100 0.0 102426
06:00+7св2278100 0.0 102453
09:00+10св226344 0.0 1024431
12:00+14св334861 0.0 10231656
15:00+16всв4541100 0.0 10232018
18:00+13всв465578 0.0 1023878
21:00+9всв497115 0.0 1023188